Location: *
(34.0486°S, 61.7880°E)
Time: 16:56:41
(UTC+00:00)

Cosmos 676 Rocket - Pass Details

Date: 01 April 2020
Orbit: 755 x 783 km, 74.0° (Epoch: 26 May)

Event Time Altitude Azimuth Distance (km) Brightness Sun altitude
Rises 15:10:53 0° 189° (S) 3,296 7.5 -18.1°
Reaches altitude 10° 15:13:26 10° 182° (S) 2,364 6.6 -18.6°
Maximum altitude 15:18:31 42° 111° (ESE) 1,123 4.4 -19.7°
Enters shadow 15:19:20 39° 88° (E) 1,173 4.4 -19.8°
